NOAA 16 DEB, 41149

Orbit data source: Space-Track

NOAA 16 DEB, 41149 is space debris in SSO originally from a launch on Thu, 21 Sep 2000 UTC launched from the Air Force Western Test Range (AFWTR). Debris objects in space refer to the collection of defunct objects orbiting the Earth. Examples of debris include non-operational satellites, rocket bodies, and fragments generated from explosions, collisions, or faulty payload assembly.

Loading next visibility...
Identifier
41149, 2000-055CG
Orbit
SSO
Country
Flag of USUS
Related business
Manufacturer
Unknown
Mission
Spacecraft
Bus & Motor
Unknown
Mass
Unknown
Launch date (UTC)
2000-09-21 (25 years ago)
Launch vehicle
Unknown
Launch site
Air Force Western Test Range (AFWTR)
Object type
Payload
Rocket body
Debris
Shape & HBR
Unknown shape, 0.1 m
Radar Cross Section
Small (<0.1 m²)

Expand to show TLE details & history
Last TLE update: 1 day ago

TLE from 1 day ago
0 NOAA 16 DEB
1 41149U 00055CG  26036.67278039  .00054038  00000-0  73732-2 0  9992
2 41149  98.9274 297.6632 0036050 343.9935  16.0131 14.77933402534289
Epoch: 2026-02-05T16:08Z
TLE epoch observation values (Epoch: 2026-02-05T16:08:48.225Z)
Latitude
0.00001°
Longitude
-80.35938°
Altitude
614.539 km
Speed
7.565 km/s
True Right ascension
19h 50m 39s
True Declination
0° 00' 00"
Sunlit
Object was in daylight at epoch
Visualization orbit readout
Latitude
Unknown
Longitude
Unknown
Altitude
Unknown
Speed
Unknown
Apparent Right ascension
Unknown
Apparent Declination
Unknown
Sunlit
N/A
Visualization observer readout
Local Sidereal Time
05:43:56
Azimuth
Unknown
Elevation
Unknown
Doppler factor
Unknown
Orbital elements
Apogee altitude
658.222 km
Perigee altitude
607.672 km
Semi-major axis
7,011.084 km
Eccentricity
0.00361
Inclination
98.9274°
RAAN
297.6632°
Arg. of periapsis
343.9935°
True anomaly
16.12755°
Mean anomaly
16.0131°
Eccentric anomaly
16.07028°
Mean motion
3.69714 °/min
Orbital period
97.37 mins
BSTAR
0.0073732
Loading maneuver chart data...
Computing Atmospheric mass density...
Loading historical data...
Loading historical data...
Loading historical data...
Loading historical data...
Loading historical data...
Loading historical data...
Loading historical data...

Documentation

Showing up to 5 results
|